• In Uzbekistan
  • List of Countries
  • For 7 days
  • Water Temperature
  • Satellite Maps
  • Weather Map
  • Weather Widgets
  • user-avatar
    Login

    Hourly Weather Klagenfurt

    Today, 27 April, Thursday

    Time Temperature Precipitation Wind Pressure Humidity
    00:00 +9°C° 1.9 mm 2 mps 684 mmHg 95%
    01:00 +8°C° 0 mm 2 mps 684 mmHg 96%
    02:00 +9°C° 1.9 mm 2 mps 683 mmHg 96%
    03:00 +9°C° 1.9 mm 2 mps 683 mmHg 96%
    04:00 +9°C° 1.9 mm 2 mps 683 mmHg 96%
    05:00 +9°C° 2.2 mm 2 mps 683 mmHg 96%
    06:00 +9°C° 2.2 mm 2 mps 684 mmHg 95%
    07:00 +9°C° 0 mm 2 mps 684 mmHg 95%
    08:00 +9°C° 2.1 mm 2 mps 684 mmHg 94%
    09:00 +10°C° 2.1 mm 2 mps 684 mmHg 94%
    10:00 +10°C° 2.1 mm 2 mps 685 mmHg 93%
    11:00 +10°C° 1.8 mm 2 mps 685 mmHg 93%
    12:00 +10°C° 1.8 mm 2 mps 685 mmHg 92%
    13:00 +12°C° 1.8 mm 2 mps 685 mmHg 92%
    14:00 +10°C° 2.9 mm 2 mps 684 mmHg 93%
    15:00 +10°C° 2.9 mm 2 mps 684 mmHg 94%
    16:00 +10°C° 2.9 mm 2 mps 684 mmHg 95%
    17:00 +9°C° 3.8 mm 2 mps 683 mmHg 96%
    18:00 +9°C° 3.8 mm 2 mps 683 mmHg 97%
    19:00 +8°C° 3.8 mm 2 mps 683 mmHg 97%
    20:00 +8°C° 3.9 mm 2 mps 683 mmHg 97%
    21:00 +8°C° 3.9 mm 2 mps 683 mmHg 97%
    22:00 +7°C° 3.9 mm 2 mps 683 mmHg 97%
    23:00 +7°C° 3.8 mm 2 mps 683 mmHg 98%

    Tomorrow, 28 April, Friday

    Time Temperature Precipitation Wind Pressure Humidity
    00:00 +7°C° 3.8 mm 2 mps 682 mmHg 98%
    01:00 +7°C° 3.8 mm 2 mps 682 mmHg 98%
    02:00 +8°C° 3 mm 1 mps 682 mmHg 98%
    03:00 +8°C° 3 mm 1 mps 682 mmHg 97%
    04:00 +8°C° 3 mm 1 mps 681 mmHg 97%
    05:00 +8°C° 2.6 mm 1 mps 681 mmHg 97%
    06:00 +8°C° 2.6 mm 1 mps 681 mmHg 97%
    07:00 +8°C° 2.6 mm 1 mps 681 mmHg 97%
    08:00 +9°C° 1.7 mm 1 mps 681 mmHg 96%
    09:00 +8°C° 1.7 mm 2 mps 681 mmHg 95%
    10:00 +9°C° 1.7 mm 2 mps 681 mmHg 94%
    11:00 +9°C° 0.6 mm 2 mps 682 mmHg 87%
    12:00 +10°C° 0.6 mm 3 mps 682 mmHg 81%
    13:00 +10°C° 0.6 mm 3 mps 683 mmHg 75%
    14:00 +10°C° 0.2 mm 3 mps 683 mmHg 70%
    15:00 +10°C° 0.2 mm 3 mps 683 mmHg 65%
    16:00 +10°C° 0.2 mm 3 mps 683 mmHg 61%
    17:00 +8°C° 0.2 mm 3 mps 683 mmHg 68%
    18:00 +7°C° 0.2 mm 2 mps 683 mmHg 75%
    19:00 +6°C° 0.2 mm 1 mps 683 mmHg 82%
    20:00 +5°C° 0.1 mm 1 mps 684 mmHg 84%
    21:00 +5°C° 0.1 mm 1 mps 685 mmHg 87%
    22:00 +4°C° 0.1 mm 1 mps 685 mmHg 89%
    23:00 +4°C° 0 mm 1 mps 685 mmHg 89%

    Day after tomorrow, 29 April, Saturday

    Time Temperature Precipitation Wind Pressure Humidity
    00:00 +3°C° 0 mm 1 mps 686 mmHg 90%
    01:00 +3°C° 0 mm 1 mps 686 mmHg 91%
    02:00 +2°C° 0 mm 1 mps 686 mmHg 90%
    03:00 +2°C° 0 mm 1 mps 686 mmHg 90%
    04:00 +1°C° 0 mm 1 mps 687 mmHg 90%
    05:00 +3°C° 0 mm 1 mps 687 mmHg 86%
    06:00 +4°C° 0 mm 1 mps 688 mmHg 81%
    07:00 +5°C° 0 mm 1 mps 688 mmHg 77%
    08:00 +7°C° 0 mm 1 mps 689 mmHg 69%
    09:00 +9°C° 0 mm 1 mps 689 mmHg 61%
    10:00 +11°C° 0 mm 1 mps 690 mmHg 52%
    11:00 +12°C° 0.1 mm 1 mps 690 mmHg 51%
    12:00 +12°C° 0.1 mm 1 mps 690 mmHg 49%
    13:00 +13°C° 0.1 mm 1 mps 690 mmHg 48%
    14:00 +13°C° 0.1 mm 1 mps 690 mmHg 50%
    15:00 +12°C° 0.1 mm 1 mps 689 mmHg 53%
    16:00 +12°C° 0.1 mm 1 mps 689 mmHg 55%
    17:00 +10°C° 0 mm 1 mps 689 mmHg 66%
    18:00 +7°C° 0 mm 1 mps 688 mmHg 77%
    19:00 +5°C° 0 mm 1 mps 688 mmHg 88%
    20:00 +3°C° 0 mm 0 mps 688 mmHg 90%
    21:00 +2°C° 0 mm 0 mps 688 mmHg 92%
    22:00 +1°C° 0 mm 0 mps 688 mmHg 94%
    23:00 +1°C° 0 mm 0 mps 688 mmHg 94%

    30 April, Sunday

    Time Temperature Precipitation Wind Pressure Humidity
    00:00 0°C° 0 mm 0 mps 688 mmHg 94%
    01:00 0°C° 0 mm 0 mps 688 mmHg 95%
    02:00 0°C° 0 mm 0 mps 688 mmHg 95%
    03:00 0°C° 0 mm 0 mps 688 mmHg 94%
    04:00 0°C° 0 mm 0 mps 688 mmHg 94%
    05:00 +2°C° 0 mm 0 mps 688 mmHg 89%
    06:00 +4°C° 0 mm 0 mps 689 mmHg 83%
    07:00 +7°C° 0 mm 0 mps 689 mmHg 78%
    08:00 +9°C° 0 mm 1 mps 689 mmHg 70%
    09:00 +11°C° 0 mm 1 mps 689 mmHg 63%
    10:00 +13°C° 0 mm 1 mps 689 mmHg 55%
    11:00 +13°C° 0 mm 1 mps 689 mmHg 53%
    12:00 +14°C° 0 mm 2 mps 689 mmHg 50%
    13:00 +15°C° 0 mm 2 mps 689 mmHg 48%
    14:00 +15°C° 0 mm 2 mps 688 mmHg 49%
    15:00 +15°C° 0 mm 2 mps 688 mmHg 51%
    16:00 +15°C° 0 mm 2 mps 688 mmHg 52%
    17:00 +12°C° 0 mm 2 mps 687 mmHg 64%
    18:00 +10°C° 0 mm 1 mps 687 mmHg 76%
    19:00 +7°C° 0 mm 1 mps 686 mmHg 88%
    20:00 +6°C° 0 mm 1 mps 686 mmHg 90%
    21:00 +5°C° 0 mm 1 mps 686 mmHg 92%
    22:00 +4°C° 0 mm 1 mps 686 mmHg 94%
    23:00 +4°C° 0 mm 1 mps 686 mmHg 93%

    1 May, Monday

    Time Temperature Precipitation Wind Pressure Humidity
    00:00 +4°C° 0 mm 1 mps 686 mmHg 93%
    01:00 +3°C° 0 mm 1 mps 685 mmHg 93%
    02:00 +3°C° 0 mm 1 mps 685 mmHg 93%
    03:00 +3°C° 0 mm 1 mps 685 mmHg 93%
    04:00 +3°C° 0 mm 1 mps 685 mmHg 93%
    05:00 +5°C° 0 mm 1 mps 685 mmHg 86%
    06:00 +7°C° 0 mm 1 mps 685 mmHg 80%
    07:00 +8°C° 0 mm 1 mps 685 mmHg 74%
    08:00 +10°C° 0 mm 1 mps 686 mmHg 66%
    09:00 +12°C° 0 mm 2 mps 686 mmHg 57%
    10:00 +14°C° 0 mm 2 mps 686 mmHg 49%
    11:00 +15°C° 0 mm 2 mps 686 mmHg 47%
    12:00 +16°C° 0 mm 2 mps 686 mmHg 45%
    13:00 +17°C° 0 mm 3 mps 685 mmHg 43%
    14:00 +16°C° 0 mm 3 mps 685 mmHg 45%
    15:00 +16°C° 0 mm 3 mps 685 mmHg 47%
    16:00 +16°C° 0 mm 3 mps 685 mmHg 49%
    17:00 +13°C° 0 mm 2 mps 685 mmHg 61%
    18:00 +10°C° 0 mm 2 mps 685 mmHg 73%
    19:00 +9°C° 0 mm 1 mps 684 mmHg 84%
    20:00 +8°C° 0.6 mm 1 mps 685 mmHg 87%
    21:00 +8°C° 0.6 mm 1 mps 685 mmHg 89%
    22:00 +8°C° 0.6 mm 1 mps 685 mmHg 91%
    23:00 +8°C° 1.1 mm 1 mps 685 mmHg 93%

    2 May, Tuesday

    Time Temperature Precipitation Wind Pressure Humidity
    00:00 +8°C° 1.1 mm 1 mps 686 mmHg 94%
    01:00 +8°C° 1.1 mm 1 mps 686 mmHg 95%
    02:00 +7°C° 0.5 mm 1 mps 685 mmHg 95%
    03:00 +7°C° 0.5 mm 1 mps 685 mmHg 95%
    04:00 +7°C° 0.5 mm 1 mps 685 mmHg 96%
    05:00 +7°C° 0.7 mm 1 mps 686 mmHg 95%
    06:00 +8°C° 0.7 mm 1 mps 686 mmHg 95%
    07:00 +8°C° 0.7 mm 1 mps 686 mmHg 94%
    08:00 +8°C° 0.7 mm 1 mps 686 mmHg 92%
    09:00 +9°C° 0.7 mm 1 mps 687 mmHg 90%
    10:00 +9°C° 0.7 mm 1 mps 687 mmHg 88%
    11:00 +10°C° 0.7 mm 1 mps 687 mmHg 84%
    12:00 +11°C° 0.7 mm 1 mps 687 mmHg 79%
    13:00 +12°C° 0.7 mm 1 mps 687 mmHg 75%
    14:00 +12°C° 0.7 mm 1 mps 687 mmHg 75%
    15:00 +12°C° 0.7 mm 1 mps 687 mmHg 74%
    16:00 +12°C° 0.7 mm 1 mps 687 mmHg 74%
    17:00 +10°C° 0.4 mm 1 mps 687 mmHg 80%
    18:00 +9°C° 0.4 mm 1 mps 687 mmHg 87%
    19:00 +7°C° 0.4 mm 1 mps 687 mmHg 93%
    20:00 +6°C° 0.1 mm 1 mps 687 mmHg 94%
    21:00 +5°C° 0.1 mm 1 mps 687 mmHg 95%
    22:00 +5°C° 0.1 mm 1 mps 687 mmHg 95%
    23:00 +4°C° 0.1 mm 1 mps 687 mmHg 95%
    Show more